Location: Krasnoyarskiy Pitomnik
(51.1333°N, 71.6167°E)
Time: 15:35:56
(UTC+00:00)

SL-8 R/B - Pass Details

Date: 22 October 2021
Orbit: 656 x 667 km, 48.4° (Epoch: 26 November)

Event Time Altitude Azimuth Distance (km) Brightness Sun altitude
Rises 13:31:58 0° 242° (WSW) 2,979 8.2 -14.1°
Reaches altitude 10° 13:34:21 10° 237° (WSW) 2,070 7.1 -14.4°
Maximum altitude 13:38:58 50° 163° (SSE) 846 4.1 -15.2°
Enters shadow 13:41:21 26° 101° (ESE) 1,298 4.6 -15.5°
